CAPE
806 1245 848 513 817 1121 643 544 811 835 857 907 700 637 364 167 28 0 0 0 0 0 0 0 0 0 0 0 0 0 1 4 0 12 233 112 48 15 42 0 22 11 0
1117 997 815 864 1087 628 507 738 773 806 509 348 113 5 0 0 0 0 0 0 0 0 0 0 0 0 0 0 0 0 0 0 0 0 0 70 174 115 178 292 114 31 386
1329 642 309 1216 917 541 698 765 595 247 30 0 0 0 0 0 0 0 0 0 0 0 0 0 0 0 0 0 0 0 0 0 0 0 0 0 172 195 200 126 239 396 482
1127 327 225 1185 809 740 784 530 129 0 0 0 0 0 0 0 0 0 0 0 0 0 0 0 0 1 0 0 0 0 0 0 0 0 0 0 0 4 0 0 0 0 0
368 215 577 1262 1008 906 680 165 0 0 0 0 0 0 0 0 0 0 0 0 0 0 0 0 0 0 0 0 0 0 0 0 0 0 0 0 0 0 0 0 0 0 0
317 531 925 1304 1284 1001 293 0 0 0 0 0 0 0 0 0 0 0 0 0 0 0 0 0 0 0 0 0 0 0 0 0 0 0 0 0 0 0 0 0 0 0 0
498 513 693 1456 1128 482 1 0 0 0 0 0 0 0 0 0 0 0 0 0 0 0 0 0 0 0 0 0 0 0 0 0 0 0 0 0 0 1 0 46 65 160 58
521 483 744 940 808 94 0 0 0 0 0 0 0 0 0 0 0 0 0 0 0 0 0 0 0 0 0 0 0 0 0 0 0 0 0 0 1 33 51 37 28 35 58
554 705 1042 763 43 0 0 0 0 0 0 0 0 0 0 0 0 0 0 0 0 0 0 0 0 0 0 0 0 0 0 0 0 0 0 0 1 29 30 15 9 11 41
779 1023 924 270 0 0 0 0 0 0 0 0 0 0 0 0 0 0 0 0 0 0 0 0 0 0 0 0 0 0 0 0 0 0 0 0 30 23 35 32 25 23 18
1149 1127 818 151 0 0 0 0 0 0 0 0 0 0 0 0 0 0 0 0 0 0 0 0 0 0 0 0 0 0 0 0 0 0 0 6 9 30 44 39 26 27 24
1089 921 426 0 0 0 0 0 0 0 0 0 0 0 0 0 0 0 0 0 0 0 0 0 0 0 0 0 0 0 0 0 0 0 0 9 7 35 39 35 18 12 9
976 796 112 0 0 0 0 0 0 0 0 0 0 0 0 0 0 0 0 0 0 0 0 0 0 0 0 0 0 0 0 0 0 0 0 13 20 41 40 26 12 7 4
835 518 0 0 0 0 0 0 0 0 0 0 0 0 0 0 0 0 0 0 0 0 0 0 0 0 0 0 0 0 0 0 0 0 0 17 13 0 6 2 4 9 10
551 262 0 0 0 0 0 0 0 0 0 0 0 0 0 0 0 0 0 0 0 0 0 0 0 0 0 0 0 0 0 0 0 0 3 0 0 0 0 0 3 6 32
645 161 0 0 0 0 0 0 0 0 0 0 0 0 0 0 0 0 0 0 0 0 0 0 0 0 0 0 0 0 0 0 0 0 0 0 0 0 0 0 0 1 5
710 92 0 0 0 0 0 0 0 0 0 0 0 0 0 0 0 0 0 0 0 0 0 0 0 0 0 0 0 0 0 0 0 0 0 0 0 0 0 0 0 0 0
689 26 0 0 0 0 0 0 0 0 0 0 0 0 0 0 0 0 0 0 0 0 0 0 0 0 0 0 0 0 0 0 0 0 0 0 0 0 0 0 0 0 0
646 4 0 0 0 0 0 0 0 0 0 0 0 0 0 0 0 0 0 0 0 0 0 0 0 0 0 0 0 0 0 0 0 0 0 0 0 0 0 0 0 0 0
2 0 0 0 0 0 0 0 0 0 0 0 0 0 0 0 0 0 0 0 0 0 0 0 0 0 0 0 0 0 0 0 0 0 0 0 0 0 0 0 0 0 0
0 0 0 0 0 0 0 0 0 0 0 0 0 0 0 0 0 0 0 0 0 0 0 0 0 0 0 0 0 0 0 0 0 0 0 0 0 0 0 0 0 0 0
4 1 0 0 0 0 0 0 0 0 0 0 0 0 0 0 0 0 0 0 0 0 0 0 0 0 0 0 0 0 0 0 0 0 0 0 0 0 0 0 0 0 0
6 4 0 0 0 0 0 0 0 0 0 0 0 0 0 0 0 0 0 0 0 0 0 0 0 0 0 0 0 0 0 0 0 0 0 0 0 0 0 0 0 0 0
24 4 5 0 0 0 0 0 0 0 0 0 0 0 0 0 0 0 0 0 0 0 0 0 0 0 0 0 0 0 0 0 0 0 0 0 0 0 0 0 0 0 0
0 0 0 0 0 0 0 0 0 0 0 0 0 0 0 0 0 0 0 0 0 0 0 0 0 0 0 0 0 0 0 0 0 0 0 0 0 0 0 0 0 0 0
0 0 0 0 0 0 0 0 0 0 0 0 0 0 0 0 0 0 0 0 0 0 0 0 0 0 0 0 0 0 0 0 0 0 0 0 0 0 0 0 0 0 0
CIN
-34 -0 -0 -24 -0 -0 -3 -18 -2 -1 -2 -1 -12 -14 -59 -115 -115 -0 -0 -0 -0 -0 -0 -0 -0 -0 -0 -0 -0 -0 -0 -68 -0 -82 -78 -139 -209 -160 -115 -0 -242 -150 -0
-21 -8 -1 -0 -0 -5 -25 -7 -6 -4 -36 -73 -166 -19 -0 -0 -0 -0 -0 -0 -0 -0 -0 -0 -0 -0 -0 -0 -0 -0 -0 -0 -0 -0 -0 -141 -120 -142 -104 -57 -110 -173 -25
-12 -43 -135 -0 -0 -17 -6 -7 -27 -99 -217 -0 -0 -0 -0 -0 -0 -0 -0 -0 -0 -0 -0 -0 -0 -0 -0 -0 -0 -0 -0 -0 -0 -0 -0 -0 -117 -112 -102 -85 -48 -7 -0
-12 -134 -189 -0 -2 -2 -5 -41 -176 -0 -0 -0 -0 -0 -0 -0 -0 -0 -0 -0 -0 -0 -0 -0 -0 -0 -0 -0 -0 -0 -0 -0 -0 -0 -0 -0 -0 -6 -0 -0 -0 -0 -0
-132 -191 -35 -0 -0 -0 -14 -171 -0 -0 -0 -0 -0 -0 -0 -0 -0 -0 -0 -0 -0 -0 -0 -0 -0 -0 -0 -0 -0 -0 -0 -0 -0 -0 -0 -0 -0 -0 -0 -0 -0 -0 -0
-160 -77 -1 -0 -0 -0 -101 -7 -0 -0 -0 -0 -0 -0 -0 -0 -0 -0 -0 -0 -0 -0 -0 -0 -0 -0 -0 -0 -0 -0 -0 -0 -0 -0 -0 -0 -0 -0 -0 -0 -0 -0 -0
-109 -98 -23 -0 -0 -54 -304 -0 -0 -0 -0 -0 -0 -0 -0 -0 -0 -0 -0 -0 -0 -0 -0 -0 -0 -0 -0 -0 -0 -0 -0 -0 -0 -0 -0 -0 -0 -0 -0 -0 -0 -50 -8
-117 -108 -31 -14 -19 -285 -0 -0 -0 -0 -0 -0 -0 -0 -0 -0 -0 -0 -0 -0 -0 -0 -0 -0 -0 -0 -0 -0 -0 -0 -0 -0 -0 -0 -0 -0 -1 -0 -0 -1 -0 -0 -0
-104 -42 -0 -29 -192 -0 -0 -0 -0 -0 -0 -0 -0 -0 -0 -0 -0 -0 -0 -0 -0 -0 -0 -0 -0 -0 -0 -0 -0 -0 -0 -0 -0 -0 -0 -0 -0 -1 -2 -0 -0 -0 -0
-41 -4 -10 -166 -0 -0 -0 -0 -0 -0 -0 -0 -0 -0 -0 -0 -0 -0 -0 -0 -0 -0 -0 -0 -0 -0 -0 -0 -0 -0 -0 -0 -0 -0 -0 -0 -4 -0 -0 -0 -0 -0 -0
-7 -7 -19 -224 -0 -0 -0 -0 -0 -0 -0 -0 -0 -0 -0 -0 -0 -0 -0 -0 -0 -0 -0 -0 -0 -0 -0 -0 -0 -0 -0 -0 -0 -0 -0 -11 -1 -0 -0 -0 -0 -0 -0
-21 -31 -108 -0 -0 -0 -0 -0 -0 -0 -0 -0 -0 -0 -0 -0 -0 -0 -0 -0 -0 -0 -0 -0 -0 -0 -0 -0 -0 -0 -0 -0 -0 -0 -0 -6 -0 -0 -0 -0 -0 -0 -0
-26 -32 -249 -0 -0 -0 -0 -0 -0 -0 -0 -0 -0 -0 -0 -0 -0 -0 -0 -0 -0 -0 -0 -0 -0 -0 -0 -0 -0 -0 -0 -0 -0 -0 -0 -4 -0 -0 -0 -0 -0 -0 -0
-37 -63 -0 -0 -0 -0 -0 -0 -0 -0 -0 -0 -0 -0 -0 -0 -0 -0 -0 -0 -0 -0 -0 -0 -0 -0 -0 -0 -0 -0 -0 -0 -0 -0 -0 -6 -0 -0 -1 -0 -0 -0 -0
-52 -117 -0 -0 -0 -0 -0 -0 -0 -0 -0 -0 -0 -0 -0 -0 -0 -0 -0 -0 -0 -0 -0 -0 -0 -0 -0 -0 -0 -0 -0 -0 -0 -0 -5 -0 -0 -0 -0 -0 -0 -0 -0
-18 -120 -0 -0 -0 -0 -0 -0 -0 -0 -0 -0 -0 -0 -0 -0 -0 -0 -0 -0 -0 -0 -0 -0 -0 -0 -0 -0 -0 -0 -0 -0 -0 -0 -0 -0 -0 -0 -0 -0 -0 -0 -0
-11 -129 -0 -0 -0 -0 -0 -0 -0 -0 -0 -0 -0 -0 -0 -0 -0 -0 -0 -0 -0 -0 -0 -0 -0 -0 -0 -0 -0 -0 -0 -0 -0 -0 -0 -0 -0 -0 -0 -0 -0 -0 -0
-5 -156 -0 -0 -0 -0 -0 -0 -0 -0 -0 -0 -0 -0 -0 -0 -0 -0 -0 -0 -0 -0 -0 -0 -0 -0 -0 -0 -0 -0 -0 -0 -0 -0 -0 -0 -0 -0 -0 -0 -0 -0 -0
-3 -155 -0 -0 -0 -0 -0 -0 -0 -0 -0 -0 -0 -0 -0 -0 -0 -0 -0 -0 -0 -0 -0 -0 -0 -0 -0 -0 -0 -0 -0 -0 -0 -0 -0 -0 -0 -0 -0 -0 -0 -0 -0
-22 -0 -0 -0 -0 -0 -0 -0 -0 -0 -0 -0 -0 -0 -0 -0 -0 -0 -0 -0 -0 -0 -0 -0 -0 -0 -0 -0 -0 -0 -0 -0 -0 -0 -0 -0 -0 -0 -0 -0 -0 -0 -0
-0 -0 -0 -0 -0 -0 -0 -0 -0 -0 -0 -0 -0 -0 -0 -0 -0 -0 -0 -0 -0 -0 -0 -0 -0 -0 -0 -0 -0 -0 -0 -0 -0 -0 -0 -0 -0 -0 -0 -0 -0 -0 -0
-0 -0 -0 -0 -0 -0 -0 -0 -0 -0 -0 -0 -0 -0 -0 -0 -0 -0 -0 -0 -0 -0 -0 -0 -0 -0 -0 -0 -0 -0 -0 -0 -0 -0 -0 -0 -0 -0 -0 -0 -0 -0 -0
-0 -0 -0 -0 -0 -0 -0 -0 -0 -0 -0 -0 -0 -0 -0 -0 -0 -0 -0 -0 -0 -0 -0 -0 -0 -0 -0 -0 -0 -0 -0 -0 -0 -0 -0 -0 -0 -0 -0 -0 -0 -0 -0
-25 -0 -0 -0 -0 -0 -0 -0 -0 -0 -0 -0 -0 -0 -0 -0 -0 -0 -0 -0 -0 -0 -0 -0 -0 -0 -0 -0 -0 -0 -0 -0 -0 -0 -0 -0 -0 -0 -0 -0 -0 -0 -0
-0 -1 -0 -0 -0 -0 -0 -0 -0 -0 -0 -0 -0 -0 -0 -0 -0 -0 -0 -0 -0 -0 -0 -0 -0 -0 -0 -0 -0 -0 -0 -0 -0 -0 -0 -0 -0 -0 -0 -0 -0 -0 -0
-0 -0 -0 -0 -0 -0 -0 -0 -0 -0 -0 -0 -0 -0 -0 -0 -0 -0 -0 -0 -0 -0 -0 -0 -0 -0 -0 -0 -0 -0 -0 -0 -0 -0 -0 -0 -0 -0 -0 -0 -0 -0 -0
Wind_Speed
16 17 16 16 13 12 13 12 10 10 9 11 15 14 14 13 13 13 13 13 13 12 12 12 11 11 11 11 10 10 11 10 10 10 7 6 5 5 6 7 8 10 5
19 18 16 15 13 14 13 11 10 12 12 14 13 13 13 13 13 12 12 12 12 12 12 11 11 11 11 11 10 10 10 10 10 10 9 10 5 3 6 7 7 10 12
20 17 17 14 14 14 13 11 13 13 13 13 12 12 12 12 12 12 13 13 12 12 12 12 11 11 11 11 11 11 11 11 11 11 12 9 3 3 8 12 11 11 12
17 16 16 15 15 14 12 14 13 12 13 12 12 12 12 12 12 12 12 12 11 11 11 11 11 11 12 11 11 11 11 12 12 12 9 8 8 10 8 11 12 13 13
17 16 16 15 15 14 15 14 13 12 12 11 11 11 11 11 11 11 11 11 11 11 11 11 11 11 11 12 11 11 11 12 13 13 7 7 6 10 13 12 12 12 12
16 17 15 15 14 15 15 14 13 12 12 11 11 10 11 11 11 11 11 11 10 10 10 11 11 11 11 11 11 11 11 12 17 7 6 6 6 12 12 12 12 13 11
16 17 15 14 17 16 15 14 13 12 11 11 10 10 11 11 11 11 10 11 10 10 11 11 11 11 11 10 10 11 11 12 9 6 6 6 9 11 9 12 15 13 11
17 16 15 14 16 15 14 14 12 12 12 11 11 11 10 11 11 11 11 11 10 11 11 11 11 11 11 10 10 10 10 11 9 7 6 5 11 12 11 14 14 14 14
16 13 13 14 14 13 13 13 12 12 12 12 11 11 11 11 10 11 11 10 10 10 10 11 11 11 10 9 9 10 10 11 9 5 6 8 13 10 13 13 12 12 13
12 12 11 14 13 12 11 12 12 12 12 11 10 9 10 10 9 8 7 10 9 9 10 10 11 11 8 5 5 8 11 12 4 5 7 7 13 11 12 12 13 13 13
9 11 11 12 11 11 11 10 11 11 11 11 8 5 9 5 6 9 7 7 8 6 7 7 8 8 12 8 2 5 10 4 5 5 7 11 11 11 12 13 14 14 13
10 10 12 11 10 10 8 10 8 8 6 6 5 4 4 6 5 5 5 3 1 2 5 4 5 8 6 7 4 4 4 5 4 4 7 10 10 10 12 13 13 14 13
11 11 12 11 10 9 7 6 4 4 4 4 5 4 4 3 2 2 3 3 4 4 5 6 6 6 9 6 6 5 5 4 3 3 8 11 10 12 13 14 14 13 12
12 9 11 10 9 8 6 5 6 4 4 4 4 4 2 2 3 3 3 4 5 5 7 6 5 7 8 8 7 6 5 4 3 3 8 10 11 12 12 13 14 13 11
10 11 11 9 8 8 6 5 5 5 4 5 4 3 2 3 4 4 4 4 4 5 5 6 6 7 8 8 7 6 6 6 5 2 6 10 9 10 10 11 13 15 14
11 12 11 10 8 7 6 7 5 5 6 4 4 3 3 3 3 3 3 4 5 5 5 6 6 6 6 7 6 6 6 5 4 4 3 7 7 8 9 10 12 13 15
14 14 12 10 8 7 6 5 5 4 5 4 4 4 3 2 3 3 3 4 4 4 6 5 7 6 6 6 7 5 5 6 4 4 4 4 6 7 5 5 9 10 12
15 16 14 11 10 9 7 5 4 4 3 4 3 3 3 3 3 2 2 4 4 4 4 5 5 6 5 6 6 5 4 3 4 4 3 4 4 5 4 2 3 5 7
17 15 13 12 11 10 9 6 4 4 3 3 3 3 2 3 2 2 3 3 4 3 4 5 5 5 6 6 6 4 4 4 3 3 5 5 4 4 4 1 2 6 4
10 13 8 6 10 10 7 6 4 3 1 2 3 2 3 1 1 2 2 3 4 4 4 5 7 6 5 6 8 6 2 3 3 3 6 6 4 5 5 5 5 4 8
9 10 6 4 8 6 6 6 4 4 3 3 2 3 2 3 2 2 3 3 4 4 4 6 5 7 5 6 5 6 3 3 3 3 4 4 4 4 5 5 4 4 5
11 8 7 4 5 5 4 3 3 3 2 3 3 3 3 3 3 3 4 4 5 4 6 6 6 5 4 5 5 6 3 0 2 6 3 4 5 4 6 6 7 7 5
10 8 7 8 7 3 3 6 4 4 3 3 4 3 3 3 4 4 4 4 5 4 4 5 5 6 4 5 6 3 4 4 8 3 3 3 5 5 6 6 9 7 7
7 7 9 9 11 8 5 4 8 5 4 2 4 3 4 4 5 5 4 5 5 4 5 5 5 4 4 5 5 2 3 5 3 5 4 8 2 5 7 4 6 7 7
5 5 6 7 8 7 6 6 3 5 4 4 4 5 4 4 4 5 5 5 5 4 4 5 5 5 4 4 4 4 5 5 6 5 8 6 7 6 6 5 7 7 7
8 2 3 7 8 8 5 4 6 7 6 5 4 4 3 3 3 5 4 4 4 5 5 4 4 5 5 4 4 5 5 4 6 6 8 9 10 7 7 7 6 4 5
Wind_Direction
137 135 142 145 144 122 109 105 95 82 76 81 77 72 67 64 62 57 50 46 41 39 35 32 27 23 21 18 14 11 20 17 11 5 340 307 307 334 338 332 321 310 17
128 140 142 144 138 120 115 108 100 94 78 69 71 73 71 66 61 57 51 45 39 34 30 26 23 19 15 12 9 5 7 7 356 341 325 287 238 292 333 327 315 306 317
128 136 144 141 129 126 122 115 97 90 87 85 80 77 73 69 64 57 54 50 46 40 34 31 27 23 17 11 8 9 8 4 350 331 305 279 180 172 349 341 329 312 308
141 145 139 133 135 132 127 112 102 97 91 87 84 80 76 70 65 59 54 49 46 41 33 28 24 22 17 11 8 6 2 355 340 317 300 344 339 56 3 332 326 321 323
140 137 125 138 138 135 121 111 106 101 96 93 89 86 78 74 67 62 53 49 46 40 34 28 22 20 15 8 5 4 359 350 329 301 356 28 321 25 353 334 328 328 323
141 125 137 139 140 124 118 113 108 104 102 100 96 90 82 77 72 65 59 51 44 39 31 29 22 16 12 6 1 358 355 346 321 14 359 16 353 355 337 335 332 329 322
135 130 144 143 129 122 119 114 110 105 101 101 100 92 85 82 75 68 60 51 44 39 34 30 22 14 9 4 1 358 353 339 311 8 4 9 26 346 342 11 15 6 2
132 144 139 129 120 121 118 115 110 106 103 100 97 93 84 78 76 71 59 51 45 42 35 26 19 14 5 4 1 357 347 329 317 31 1 38 12 339 33 22 13 18 21
130 134 139 131 116 109 113 111 110 105 104 102 99 95 88 81 76 70 57 51 45 42 32 24 15 9 3 3 355 351 333 311 309 25 6 38 356 6 24 14 10 13 17
144 135 137 135 137 133 124 107 106 107 105 101 104 112 122 115 106 64 76 48 42 36 25 15 9 0 347 336 354 335 308 292 356 22 56 23 348 20 27 20 16 13 12
139 131 153 146 144 135 131 123 115 117 121 125 128 172 188 94 98 87 69 53 42 31 20 8 356 329 306 238 199 297 293 11 22 20 56 11 1 33 37 29 17 13 15
146 155 151 141 144 135 139 164 130 149 140 130 131 132 92 78 72 78 114 153 128 319 245 268 274 290 334 3 2 257 11 357 29 33 59 15 8 44 44 29 14 8 4
167 148 148 146 143 144 142 148 134 128 125 113 111 105 94 99 101 73 55 38 13 5 13 4 6 16 10 7 6 359 4 9 16 39 55 22 28 44 40 28 10 3 3
152 156 147 149 149 151 145 157 130 135 127 120 109 111 114 95 68 47 35 26 20 11 8 11 4 7 13 5 9 359 16 25 14 25 76 37 47 41 33 20 14 9 6
159 162 153 152 154 156 160 139 125 134 133 114 106 82 70 62 44 38 29 29 29 6 9 2 5 2 12 3 12 7 19 20 20 17 99 70 47 45 37 25 22 16 6
166 160 154 160 163 159 158 145 134 135 123 118 119 104 77 70 40 24 36 30 22 13 3 354 2 1 2 1 5 8 6 22 17 27 27 108 94 60 35 27 16 11 12
173 162 162 160 156 156 151 138 132 130 133 132 133 139 107 69 60 32 26 25 25 12 357 356 4 351 355 359 351 8 7 1 357 15 25 357 146 133 103 44 8 356 357
172 169 166 158 166 160 146 149 139 154 140 134 150 145 135 101 33 33 24 35 15 5 357 358 1 350 351 356 345 351 345 349 340 351 340 343 355 347 163 120 22 333 334
170 161 162 159 166 163 153 142 137 125 162 139 159 148 143 119 53 356 18 24 7 2 1 352 353 358 346 350 329 331 324 319 319 312 330 331 322 300 331 43 243 258 277
131 147 141 155 167 158 146 135 130 132 164 166 161 140 148 119 21 353 2 18 2 351 8 360 350 350 337 349 326 312 309 298 312 313 335 324 330 318 311 322 332 332 227
147 142 138 111 172 161 156 150 145 177 177 190 140 123 138 100 64 8 13 17 7 5 358 354 354 344 349 356 320 340 280 214 280 287 323 302 299 300 307 309 307 329 310
181 169 148 181 210 186 165 131 76 129 179 127 118 128 93 69 54 24 25 25 20 351 6 3 4 346 344 21 349 290 342 137 170 311 2 308 299 295 303 293 315 314 307
179 171 166 169 225 194 124 107 110 92 120 158 142 147 89 80 74 43 38 21 19 7 1 358 360 354 347 340 16 330 340 0 339 103 239 349 308 309 315 307 309 312 305
187 151 176 173 205 190 157 166 160 174 170 123 134 102 101 79 74 54 32 21 24 8 6 348 360 344 337 340 334 25 298 303 319 326 348 321 335 297 299 303 308 313 305
69 123 159 182 199 184 186 190 159 113 105 122 126 127 111 101 76 60 37 24 18 21 4 349 345 348 332 326 326 324 313 300 259 263 297 303 303 329 318 316 295 302 301
106 48 177 183 184 175 171 145 130 122 136 131 125 139 140 112 105 63 39 27 23 16 359 343 335 328 327 316 310 305 299 305 313 306 302 305 311 305 316 299 287 287 292